SWAS

Last updated on Fri Sep 11 2026 00:03:31 GMT+0000 (Coordinated Universal Time)

1 25560U 98071A 26253.47956033 .00002970 00000+0 18841-3 0 9990 2 25560 69.8985 7.4877 0003481 152.1196 208.0155 15.10070169510141
UTC large
Height (km)
Speed (km/s)
/
Latitude / Longitude
Inclination (degrees)
Orbital Period (minutes)
Azimuth
Elevation
Range (km)
Doppler Factor

Next 0 passes for location: London (51.5072 / 0.1276)

No passes found over London.
SWAS